{"data":{"norad_id":62576,"epoch":"2026-09-22T18:18:02.046816Z","epoch_age_seconds":121856,"freshness":"FRESH","line1":"1 62576U 25007B   26265.76252369 -.00000067  00000+0  69597-4 0  9994","line2":"2 62576  54.9771 310.7257 0010626 255.2746 104.7032 13.80623957 88199","mean_motion":13.80623957,"eccentricity":0.0010626,"inclination_deg":54.9771,"raan_deg":310.7257,"arg_perigee_deg":255.2746,"mean_anomaly_deg":104.7032,"bstar":6.9597e-5,"rev_number":8819,"period_min":104.30066729604,"perigee_km":953.87518258115,"apogee_km":969.47374990922,"semimajor_km":7339.8114662452,"source":"CELESTRAK","updated_at":"2026-09-23T09:00:21.488823Z"}}